Regional Weather Roundup
Issued by NWS

Home | Current Version | Previous Version | Graphics & Text | Print | Product List | Glossary On
Versions: 1 2 3 4 5 6 7 8 9 10 11 12 13 14 15 16 17 18 19 20 21 22 23 24 25 26 27 28 29 30 31 32 33 34 35 36 37 38 39 40 41 42 43 44 45 46 47 48 49 50
000
ASUS43 KTOP 291208
RWRKS

WEATHER ROUNDUP FOR KANSAS
NATIONAL WEATHER SERVICE GOODLAND KS
700 AM CDT SAT AUG 29 2015

NOTE:  "FAIR" INDICATES FEW OR NO CLOUDS BELOW 12,000 FEET WITH NO
SIGNIFICANT WEATHER AND/OR OBSTRUCTIONS TO VISIBILITY.

KSZ001>006-013>018-027>032-041>047-291300-
NORTHWEST KANSAS

CITY           SKY/WX    TMP DP  RH WIND       PRES   REMARKS
GOODLAND       CLEAR     57  54  89 W6        30.18R
6HR MIN TEMP:  55; 6HR MAX TEMP:  63;

HAYS           CLEAR     55  48  76 NW6       30.09R
HILL CITY      CLEAR     58  56  93 W7        30.11R
6HR MIN TEMP:  56; 6HR MAX TEMP:  62;

RUSSELL        CLEAR     58  57  97 NW8       30.06R
6HR MIN TEMP:  58; 6HR MAX TEMP:  66;

$$

KSZ061>065-074>080-084>089-291300-
SOUTHWEST KANSAS

CITY           SKY/WX    TMP DP  RH WIND       PRES   REMARKS
DODGE CITY     CLEAR     57  56  96 NW3       30.10R FOG
6HR MIN TEMP:  57; 6HR MAX TEMP:  63;

ELKHART          N/A     62  56  81 N3          N/A
GARDEN CITY    CLEAR     57  55  93 N8        30.12R
6HR MIN TEMP:  56; 6HR MAX TEMP:  67;

GREAT BEND     CLEAR     61  54  77 NW6       30.06R
LIBERAL        CLEAR     63  55  77 N6        30.11R
PRATT          CLEAR     61  59  94 CALM      30.07R
$$

KSZ066>073-081>083-090>101-291300-
SOUTHEAST KANSAS

CITY           SKY/WX    TMP DP  RH WIND       PRES   REMARKS
CHANUTE        CLOUDY    69  67  93 N7        29.97R
6HR MIN TEMP:  68; 6HR MAX TEMP:  71;

COFFEYVILLE    CLEAR     67  66  97 S6        29.96R
6HR MIN TEMP:  67; 6HR MAX TEMP:  72; 6HR PCP:  0.03;

HUTCHINSON     CLEAR     64  60  87 N7        30.03R
6HR MIN TEMP:  63; 6HR MAX TEMP:  72;

MEDICINE LODGE   N/A     64  63  96 N5        30.03S
NEWTON         CLEAR     64  57  77 N7        30.04R
PARSONS        CLEAR     65  65 100 NW8       29.99R FOG
6HR MIN TEMP:  66; 6HR MAX TEMP:  73; 6HR PCP:  0.49;

WICHITA INTL   PTCLDY    67  63  87 NW5       30.01R
6HR MIN TEMP:  67; 6HR MAX TEMP:  74;

WICHITA JABRA  CLEAR     65  63  93 NW6       30.01R
6HR MIN TEMP:  65; 6HR MAX TEMP:  69;

WICHITA MCCONL CLEAR     67  62  86 N7        30.01R
$$

KSZ007>012-019>026-033>040-048>060-102>105-291300-
NORTHEAST KANSAS

CITY           SKY/WX    TMP DP  RH WIND       PRES   REMARKS
CONCORDIA      CLEAR     60  59  96 NW7       30.05R
6HR MIN TEMP:  60; 6HR MAX TEMP:  65;

EMPORIA        CLEAR     63  62  97 CALM      30.00R
6HR MIN TEMP:  63; 6HR MAX TEMP:  71;

LAWRENCE       CLOUDY    66  64  93 NW7       29.99R
6HR MIN TEMP:  66; 6HR MAX TEMP:  70;

MANHATTAN      CLOUDY    66  62  87 NW5       30.00S
6HR MIN TEMP:  66; 6HR MAX TEMP:  69;

MARYSVILLE     CLOUDY   N/A N/A N/A N8        30.03R
OLATHE IND     CLOUDY    67  66  97 NW7       29.99R
6HR MIN TEMP:  68; 6HR MAX TEMP:  70;

OLATHE EXE     CLOUDY    68  66  93 NW7       29.98R
6HR MIN TEMP:  68; 6HR MAX TEMP:  70;

SALINA         CLOUDY    65  62  90 NW8       30.04R
6HR MIN TEMP:  64; 6HR MAX TEMP:  70;

TOPEKA BILLARD CLEAR     62  61  96 W5        29.99R
6HR MIN TEMP:  62; 6HR MAX TEMP:  71;

TOPEKA FORBES  CLEAR     63  60  90 N6        29.99R
6HR MIN TEMP:  63; 6HR MAX TEMP:  73;

$$



USA.gov is the U.S. government's official web portal to all federal, state and local government web resources and services.